STARLINK-1892 (46743 NORAD) Tracking and Keplerian Element Data

This shows tracking and keplerian element data for the satellite.

Feedback or suggestion? Click here.




ElementValue
Catalog46743
NameSTARLINK-1892
Epoch Orbit181
Epoch Day20.91667824
Epoch Year2021
RAAN93.3004
Inclination53.0591
Eccentricity0.000123
Argument of Perigee7.036
Mean Anonmoly127.7808
Mean Motion15.06404548
Decay Rate-0.00015457
L11 46743U 20074E 21020.91667824 -.00015457 00000-0 -10209-2 0 9993
L22 46743 53.0591 93.3004 0001230 7.0360 127.7808 15.06404548 1810

Live tracking and technical data element details for STARLINK-1892 (NORAD 46743). STARLINK-1892 can be tracked NOW for your location showing map with azimuth and elevation plus other details from your city location.

Track the satellite on the map from your city or location and see movement details for azimuth, elevation, latitude, longitude, range, height, and movement on the map or in text.







IsCatalogInMostPopularTable: catalog: 46743, numindb: 28
Update: records affected: 1



GetName: 46743 STARLINK-1892

Hit Count: updated at: Fri, 22 Jan 2021 20:11:52 GMT